GSAT0209 (GALILEO 12)

Last updated on Fri Jun 19 2026 17:09:21 GMT+0000 (Coordinated Universal Time)

1 41174U 15079A 26169.21194997 -.00000011 00000+0 00000+0 0 9996 2 41174 55.8280 101.2339 0005250 345.1239 14.8344 1.70473656 64794
UTC large
Height (km)
Speed (km/s)
/
Latitude / Longitude
Inclination (degrees)
Orbital Period (minutes)
Azimuth
Elevation
Range (km)
Doppler Factor

Next 0 passes for location: London (51.5072 / 0.1276)

No passes found over London.
GSAT0209 (GALILEO 12)